Showing default

LEMUR-2-DELOITTE-4, 69934

Orbit data source: Space-Track

LEMUR-2-DELOITTE-4, 69934 is an American payload satellite in SSO that was launched on Tue, 07 Jul 2026 UTC via an FALCON 9 launch vehicle from the Air Force Western Test Range (AFWTR). Payload-class satellites include a variety of spacecraft equipped with specific instruments for various scientific and technological missions. These include communications satellites like Starlink; space stations such as the ISS; scientific satellites like the Hubble; Earth observation satellites from companies like Planet Labs, Umbra, and HawkEye 360; GPS; miniature CubeSats for education and research; and military/defense satellites.

Loading next visibility...
Identifier
69934, 2026-156BT
Orbit
SSO
Country
Flag of USUS
Related business
Manufacturer
Spire/Glasgow
Mission
Operational spacecraft
Bus & Motor
CUBESAT 6U, Unknown motor
Mass
10 kg wet, 10 kg dry
Launch date (UTC)
2026-07-07 (2 months ago)
Launch vehicle
FALCON 9
Launch site
Air Force Western Test Range (AFWTR)
Object type
Payload
Rocket body
Debris
Shape & HBR
BOX, 1.1 m
Radar Cross Section
Medium (>0.1 m² and <1 m²)

Expand to show TLE details & history
Last TLE update: 7 hours ago

TLE from 7 hours ago
0 LEMUR-2-DELOITTE-4
1 69934U 26156BT  26237.21599910  .00004036  00000-0  39678-3 0  9996
2 69934  97.7494 136.9205 0009776   9.7151 350.4255 14.92655220  7299
Epoch: 2026-08-25T05:11Z
TLE epoch observation values (Epoch: 2026-08-25T05:11:02.322Z)
Latitude
-0.00006°
Longitude
85.6743°
Altitude
585.985 km
Speed
7.571 km/s
True Right ascension
09h 07m 40s
True Declination
0° 00' 00"
Sunlit
Object was in daylight at epoch
Visualization orbit readout
Latitude
Unknown
Longitude
Unknown
Altitude
Unknown
Speed
Unknown
Apparent Right ascension
Unknown
Apparent Declination
Unknown
Sunlit
N/A
Visualization observer readout
Local Sidereal Time
03:49:35
Azimuth
Unknown
Elevation
Unknown
Doppler factor
Unknown
Orbital elements
Apogee altitude
593.486 km
Perigee altitude
579.869 km
Semi-major axis
6,964.815 km
Eccentricity
0.00098
Inclination
97.7494°
RAAN
136.9205°
Arg. of periapsis
9.7151°
True anomaly
350.40684°
Mean anomaly
350.4255°
Eccentric anomaly
350.41617°
Mean motion
3.73404 °/min
Orbital period
96.41 mins
BSTAR
0.00039678
Loading maneuver chart data...
Computing Atmospheric mass density...
Loading historical data...
Loading historical data...
Loading historical data...
Loading historical data...
Loading historical data...
Loading historical data...
Loading historical data...

Documentation

Showing up to 5 results
|